Temperature
24 24 24 22 21 21 24 24 28 29 29 30 28 27 26 25 25 23 23 23 23 22 22 21 22 22 22 21 21 21 20 20 20 20 21 21 21 21 20 20 20 20 20 20 20 20 20 20 20
25 24 24 22 22 22 24 25 28 30 30 29 28 27 26 25 24 23 22 22 23 23 22 21 22 22 22 21 21 21 20 20 20 20 20 20 20 20 20 20 20 20 20 20 20 20 20 20 20
25 24 23 21 23 23 25 27 29 31 31 30 28 27 26 25 23 23 23 23 23 23 23 22 22 22 21 21 21 21 20 20 20 20 20 20 20 20 20 20 20 20 20 20 20 20 20 20 20
25 24 23 21 24 25 25 27 29 30 31 29 27 25 25 25 24 24 23 23 23 23 23 22 21 21 21 21 21 21 20 20 20 20 20 20 20 20 20 20 20 20 20 20 20 20 20 20 20
25 24 22 22 25 27 27 28 29 30 30 28 26 24 24 24 25 24 23 23 23 23 22 22 21 21 21 21 21 20 20 20 20 20 20 20 20 19 19 19 19 20 20 20 20 20 20 20 20
25 23 22 23 26 30 30 29 29 29 28 27 26 24 23 23 24 23 23 23 23 23 23 22 21 21 21 21 21 20 20 20 20 20 20 19 19 19 19 20 19 19 20 20 20 20 20 19 19
26 22 24 25 26 30 31 30 29 28 29 28 26 23 23 23 23 23 22 22 22 22 23 22 21 21 21 21 21 21 20 20 20 20 20 20 19 19 19 20 19 19 19 19 19 19 19 19 19
27 22 24 24 28 29 31 32 31 30 29 29 27 24 23 23 23 22 22 22 22 22 22 22 22 22 21 21 21 21 21 21 21 21 20 20 20 20 20 19 19 19 19 19 19 19 19 19 19
27 22 23 25 28 28 31 31 31 30 30 29 28 27 26 24 23 22 21 21 21 21 21 21 22 22 22 21 21 21 21 20 20 20 20 20 20 20 20 19 19 19 19 19 19 19 19 19 19
26 22 25 27 29 29 30 31 31 29 27 27 26 27 25 24 23 22 22 21 21 21 21 21 21 22 22 21 21 21 21 20 20 20 21 20 20 20 19 19 19 19 19 19 19 19 18 19 19
26 25 26 28 30 31 31 31 31 28 26 26 25 25 24 24 23 23 22 21 21 21 21 20 20 21 21 21 21 21 20 20 20 21 21 20 20 19 19 19 19 19 19 18 19 19 19 19 19
27 27 28 30 31 31 31 32 31 29 28 29 28 27 24 24 23 23 22 22 21 21 20 20 20 20 20 21 21 21 20 20 20 21 20 20 20 20 19 19 19 19 19 18 18 18 19 19 19
26 27 29 31 31 31 31 30 31 30 29 27 26 25 24 24 24 23 23 22 22 21 21 20 20 20 20 20 21 21 20 20 20 20 20 20 20 20 19 19 19 18 18 18 18 18 19 19 19
27 29 29 30 30 30 29 29 30 29 27 25 24 24 24 24 24 23 23 22 22 22 21 21 20 20 20 20 20 20 20 20 20 20 20 19 19 19 19 19 19 19 19 19 18 18 18 18 19
28 27 27 27 29 29 29 28 28 27 26 24 23 24 24 24 24 23 23 23 22 22 22 21 21 20 20 20 20 20 19 19 19 19 19 19 19 19 19 19 19 19 19 19 18 18 18 18 18
25 25 25 25 26 28 28 27 27 27 25 23 22 22 23 23 23 23 23 22 22 21 21 21 20 20 19 19 19 18 18 18 18 18 18 18 18 18 18 19 19 19 19 18 18 18 18 18 18
23 23 24 25 27 27 26 27 27 27 26 24 22 22 22 23 22 22 22 22 21 21 20 20 19 19 19 18 18 18 18 19 19 19 18 18 18 18 19 19 19 18 18 18 18 18 18 18 18
23 24 25 25 27 27 26 27 27 27 26 24 22 22 22 22 22 22 22 22 21 20 20 19 19 19 19 19 19 19 19 19 19 19 19 19 19 19 18 18 18 18 18 18 18 18 18 18 18
25 25 25 26 27 26 25 26 26 27 26 23 21 21 21 21 21 21 21 21 20 19 19 19 19 19 19 19 18 18 18 19 19 19 19 19 18 18 18 18 18 18 18 18 18 18 18 18 18
26 25 24 25 26 26 25 24 24 23 24 22 21 20 21 21 21 21 21 20 20 20 20 19 19 19 19 19 19 18 18 18 19 19 19 18 18 18 18 18 18 18 18 18 18 17 17 18 18
26 24 24 24 24 24 24 22 22 22 22 21 21 21 22 21 21 21 21 21 21 21 20 20 20 20 19 19 18 18 18 18 18 18 18 18 18 17 17 17 17 17 17 17 17 17 17 17 17
24 25 25 24 22 20 22 20 21 21 20 21 21 21 21 21 21 21 21 22 22 21 21 21 20 20 19 19 18 18 17 17 16 16 16 17 17 17 17 16 16 16 16 16 16 16 16 16 16
26 25 24 24 22 21 21 20 20 20 20 20 20 21 21 21 21 22 22 22 22 22 21 20 20 20 19 19 18 17 17 16 16 16 16 16 16 16 16 16 16 16 16 16 16 16 16 16 16
26 23 21 19 18 19 20 21 20 19 20 19 20 21 22 22 22 23 23 22 22 21 21 20 20 19 19 18 18 17 16 16 16 16 16 16 16 16 16 16 16 15 15 15 15 15 15 15 15
23 19 18 19 17 18 20 21 19 20 21 20 20 22 23 23 23 23 23 22 22 21 21 20 20 19 18 18 17 16 16 15 15 15 15 15 15 15 15 15 15 15 15 15 15 15 15 15 15
24 20 18 19 18 18 19 20 19 22 22 23 23 24 24 24 23 23 23 22 22 21 20 20 19 19 18 17 17 16 16 15 15 14 14 14 14 14 14 14 15 15 15 15 15 15 15 14 14
24 21 19 17 18 18 19 21 22 21 21 21 22 23 23 23 23 23 23 22 22 21 21 20 19 18 18 17 16 16 15 15 14 14 13 13 13 13 13 13 14 14 14 14 14 14 14 14 14
23 21 17 18 18 18 19 20 19 20 20 20 20 21 22 23 23 22 22 22 21 21 20 20 19 18 17 16 16 15 15 14 13 13 13 12 12 12 12 13 13 13 14 14 14 14 13 13 14
23 23 19 16 16 17 17 18 19 20 20 20 21 22 22 22 22 22 22 22 21 21 20 20 19 18 17 16 15 15 14 14 13 13 12 12 12 12 12 12 12 13 13 13 13 13 13 13 13
22 21 18 18 18 16 16 17 19 20 20 20 21 21 21 21 21 21 21 21 21 21 20 20 19 18 17 16 15 15 14 14 13 12 12 12 12 12 12 12 12 12 13 13 13 13 13 13 13
Wind_Speed
6 5 1 2 4 6 4 5 2 6 6 7 11 12 9 5 3 4 4 15 19 18 18 24 26 25 23 22 19 17 15 14 13 12 12 12 12 12 12 12 12 11 10 10 10 9 9 8 8
4 3 1 4 5 3 5 5 2 4 7 12 10 9 7 5 7 10 7 16 21 18 17 20 25 24 23 22 20 18 17 15 14 12 12 11 11 11 10 10 11 11 10 9 9 8 8 7 6
3 1 3 4 2 3 5 5 3 4 8 9 7 7 5 6 10 8 11 20 18 16 18 21 25 24 23 22 21 20 18 17 15 13 12 11 11 10 10 9 10 9 9 8 8 8 7 7 6
2 3 4 4 4 6 6 5 2 3 6 8 9 7 5 2 6 12 20 21 19 15 17 21 24 24 23 22 21 20 19 17 16 14 12 11 11 10 10 10 10 10 9 8 8 7 7 7 7
2 3 4 3 6 6 7 7 3 6 5 8 11 7 4 5 18 24 21 20 19 14 14 19 23 22 22 22 20 19 19 18 16 15 13 12 11 11 11 11 11 10 10 9 9 9 9 8 8
2 4 3 4 6 5 5 8 6 9 6 8 10 8 4 9 19 21 20 18 18 17 13 17 21 21 21 21 20 20 19 18 17 15 13 11 11 10 11 12 11 11 11 10 10 11 10 10 10
4 3 2 5 6 2 1 6 8 9 9 9 10 8 6 10 17 19 17 17 16 15 13 12 17 19 21 22 22 21 20 20 18 16 15 13 12 12 13 13 13 12 12 11 11 12 12 12 12
5 3 4 6 6 5 6 2 5 10 7 9 9 10 8 11 15 16 16 15 15 14 13 10 12 14 16 18 21 21 21 20 19 18 17 16 14 13 14 14 14 14 14 15 15 15 15 15 15
2 4 3 4 6 8 8 7 5 4 7 6 6 7 13 17 16 18 15 12 13 13 11 11 9 10 12 13 17 18 19 19 18 16 17 16 14 15 14 16 17 17 18 18 18 19 19 18 17
4 3 7 6 4 6 9 7 6 5 7 5 8 12 20 16 16 18 17 15 14 13 11 10 9 7 9 12 11 11 12 13 14 13 14 14 13 14 14 16 20 20 21 21 21 21 20 18 14
5 7 8 9 7 4 6 9 3 8 4 7 14 20 20 15 13 14 14 14 14 14 13 11 10 7 7 5 7 8 9 10 12 14 15 14 12 12 13 12 15 18 20 18 18 19 16 14 12
5 10 10 7 4 4 5 6 4 6 10 13 20 22 20 17 14 13 12 11 12 12 13 12 12 10 9 8 7 8 8 8 10 14 16 12 7 7 8 8 11 12 13 11 12 10 12 14 15
7 9 8 5 6 5 6 7 6 2 9 14 16 16 16 16 12 11 10 10 12 12 11 12 13 13 12 9 7 8 8 9 12 14 17 16 8 9 7 7 9 11 12 10 8 8 9 10 12
6 5 6 7 9 5 5 8 4 4 17 18 14 10 9 9 9 7 9 9 11 12 11 12 15 16 13 11 10 10 9 10 12 12 16 18 14 8 10 10 8 8 11 12 9 9 11 11 9
8 7 9 8 8 6 5 8 2 13 22 20 16 14 13 12 12 9 6 8 9 10 10 11 13 14 12 11 10 6 7 8 6 9 15 16 16 13 10 10 9 8 10 10 7 7 6 7 6
7 5 6 11 7 8 5 5 2 16 22 18 16 16 16 12 11 10 10 7 4 2 2 4 4 6 7 5 4 3 2 3 4 6 8 11 14 16 9 9 9 7 7 5 5 5 4 5 5
6 5 10 14 9 7 9 7 7 10 17 15 14 14 14 11 8 8 8 8 7 7 5 5 5 2 2 4 4 4 3 4 5 7 7 9 10 12 8 10 10 7 6 7 6 5 4 5 5
6 7 6 8 9 5 7 5 7 7 13 13 12 12 11 9 6 5 6 7 6 5 5 3 2 3 3 1 1 2 4 4 4 4 5 8 9 10 7 9 10 9 8 8 6 6 6 5 5
6 3 5 6 9 9 9 6 4 1 7 12 11 10 11 8 4 3 5 5 4 3 2 1 2 3 2 1 1 2 4 4 5 6 6 7 8 8 7 7 8 9 10 11 10 7 7 7 4
2 5 6 6 10 9 9 8 9 7 5 14 14 11 10 7 4 2 2 2 2 1 1 2 4 4 4 4 4 4 4 5 5 6 7 8 8 7 7 8 7 7 7 8 8 7 5 5 6
4 5 5 4 6 6 7 8 7 6 11 13 12 12 11 11 9 7 5 4 3 3 5 5 6 7 7 6 4 3 3 4 4 6 6 8 7 7 8 8 8 8 8 8 10 9 8 7 7
3 2 5 7 7 4 4 2 5 2 7 6 8 9 9 9 9 8 8 8 8 8 8 8 8 8 8 7 5 6 5 6 7 6 7 9 9 10 9 9 9 9 8 9 9 9 8 8 7
1 4 7 7 6 6 4 1 5 3 5 5 4 5 7 9 11 11 11 11 10 10 8 7 7 7 7 6 5 4 4 4 5 6 8 9 9 10 10 9 9 9 9 9 9 8 9 8 7
4 8 10 7 5 3 5 3 6 5 8 6 4 5 7 9 11 12 12 10 8 6 5 5 4 4 4 3 2 1 1 3 5 7 8 9 9 10 11 10 9 9 9 10 10 9 9 8 8
8 7 6 7 6 5 5 2 7 6 7 8 9 10 10 10 10 10 10 9 7 6 6 4 4 4 3 4 4 4 3 2 3 5 8 10 10 11 12 11 9 9 9 9 8 8 8 8 7
2 8 6 3 4 7 6 3 6 4 8 10 10 10 10 10 9 9 9 8 7 7 7 5 6 5 5 5 4 4 4 2 2 4 6 9 10 11 12 11 9 9 8 7 7 6 7 7 8
4 3 9 7 2 3 6 1 2 5 7 9 10 8 9 9 8 7 6 7 8 8 7 8 8 7 6 5 4 4 3 2 2 4 6 7 8 9 10 9 7 5 4 4 5 4 6 6 7
6 8 6 4 1 3 7 5 5 9 11 10 8 8 7 5 4 6 7 8 8 8 7 8 8 7 5 5 5 4 4 2 1 3 6 8 9 9 10 9 5 3 1 2 3 3 3 4 3
2 3 5 5 5 5 5 7 7 10 9 8 8 8 6 4 4 5 7 8 8 7 7 8 7 5 5 6 6 5 4 3 2 3 5 6 7 8 9 9 8 5 3 1 0 1 2 3 3
6 7 7 4 6 7 5 9 8 2 2 4 5 4 1 3 5 6 7 7 8 8 7 7 7 6 7 7 6 6 5 4 4 4 6 6 7 7 7 8 8 6 5 5 4 4 3 4 4
Wind_Direction
276 273 293 350 48 46 341 292 271 82 73 75 86 91 91 88 136 154 125 143 140 145 157 160 159 159 156 150 146 143 143 142 139 136 133 131 130 130 131 134 135 135 133 131 130 127 122 119 117
308 293 17 16 59 38 301 280 251 123 119 111 97 88 85 76 96 113 119 144 142 144 152 160 162 162 158 152 149 150 153 155 155 155 152 148 147 147 146 145 144 145 147 146 146 143 141 142 143
281 327 65 43 59 197 248 252 215 123 133 114 82 58 66 106 116 127 141 142 140 145 152 161 165 166 162 157 156 158 161 164 166 168 167 165 164 164 162 159 156 156 159 163 165 163 162 167 173
292 47 45 57 266 238 226 243 171 81 89 92 94 65 34 75 127 132 140 143 143 150 154 160 165 169 168 165 164 165 167 169 172 175 177 177 179 178 175 174 174 172 174 178 181 184 186 191 197
104 69 39 335 266 234 218 230 165 73 48 102 101 96 41 30 117 133 142 146 148 151 155 161 165 169 171 170 171 171 173 175 178 182 185 188 191 190 185 186 191 191 192 196 197 202 203 209 214
31 61 46 297 283 258 210 194 138 102 106 115 109 110 88 117 129 143 146 153 153 155 158 162 166 169 170 170 172 176 179 182 184 187 190 194 200 200 192 194 202 208 210 212 217 217 211 216 220
131 96 248 273 283 287 41 160 147 141 152 152 128 109 123 144 145 152 150 150 151 156 159 162 169 172 173 173 175 179 183 185 188 191 194 199 206 207 202 202 210 218 221 222 224 221 221 224 227
146 90 334 315 335 354 347 65 157 149 146 124 124 134 161 174 149 148 144 146 151 158 164 166 171 174 176 179 180 183 188 191 192 194 197 199 203 208 209 209 217 223 226 227 227 227 228 229 231
98 71 300 285 325 323 338 9 360 94 99 100 122 147 156 153 137 141 145 149 155 162 169 169 171 172 176 182 189 190 195 199 199 201 205 206 211 213 214 217 222 227 229 229 231 233 235 234 234
104 156 233 228 274 307 334 359 7 84 83 79 84 109 136 147 143 148 157 162 166 169 173 174 173 169 173 188 192 195 199 203 204 207 212 212 216 222 224 226 229 231 232 233 235 238 241 244 239
189 208 241 262 261 289 325 327 27 120 134 162 144 141 148 150 152 155 162 167 172 173 175 178 178 174 179 194 182 193 203 205 208 211 215 218 223 229 233 233 236 236 237 236 238 240 241 243 238
250 260 258 256 297 297 269 290 326 150 183 169 152 151 155 160 168 170 168 164 163 170 180 179 180 183 191 196 190 196 205 209 213 216 218 220 227 232 233 236 234 230 231 233 233 234 236 239 239
260 267 268 280 320 295 289 283 276 153 146 142 144 149 159 167 173 172 167 159 159 175 184 179 182 189 196 200 200 201 208 213 217 219 222 221 222 230 229 234 231 227 224 225 225 230 237 240 241
271 297 317 314 310 299 304 306 304 90 125 128 119 125 148 156 155 151 159 161 167 180 187 179 185 194 198 202 206 208 211 218 220 221 225 224 227 232 234 233 228 222 220 221 221 225 233 237 237
306 307 318 296 285 285 337 314 311 127 124 126 120 117 115 106 93 90 133 167 178 184 182 175 187 196 202 207 208 206 213 217 223 228 230 230 231 235 236 235 233 226 217 211 211 219 221 227 225
352 3 310 283 258 258 169 233 132 139 130 133 134 127 117 106 99 90 85 86 73 72 187 160 177 198 218 235 251 263 257 262 251 247 241 241 239 239 237 236 238 228 213 200 199 196 201 212 213
6 325 285 289 277 221 161 188 159 151 133 140 137 128 122 114 102 100 99 94 80 72 79 78 66 94 231 257 277 285 285 279 272 273 262 256 253 248 234 237 238 226 216 212 208 201 195 211 221
266 276 293 304 329 80 104 120 144 162 145 143 130 123 121 117 118 111 94 92 92 97 103 109 118 147 164 166 313 319 311 295 285 275 271 271 264 255 236 240 237 224 223 226 220 213 203 210 214
242 307 345 351 354 44 36 25 20 103 144 131 130 129 124 123 121 90 79 75 70 63 78 178 209 206 188 208 241 255 258 261 271 269 266 273 271 258 243 243 240 229 227 227 220 214 214 220 187
335 43 22 1 359 24 22 6 1 16 130 143 141 134 131 131 145 173 117 75 62 39 127 192 210 215 207 206 214 221 239 259 262 271 278 277 275 267 253 243 242 236 233 229 219 211 213 215 187
6 87 62 19 2 24 46 358 356 24 96 121 134 141 148 160 175 187 187 208 214 217 208 205 215 217 212 211 220 258 286 296 296 294 292 288 283 277 267 251 245 240 229 232 229 219 215 225 217
350 50 47 18 21 317 73 321 309 101 98 126 148 154 160 163 169 175 187 198 203 209 206 203 210 213 216 211 211 227 248 268 274 282 286 292 289 282 272 263 252 243 232 230 231 224 219 217 226
277 35 24 349 334 325 335 110 272 123 152 195 194 175 170 173 176 186 197 202 206 204 201 206 211 216 220 217 220 239 263 274 292 307 307 305 300 291 281 271 261 248 234 226 224 223 217 212 213
63 32 8 19 49 328 276 196 267 219 204 191 196 192 192 194 196 204 213 213 219 219 216 215 208 219 216 190 158 134 330 337 338 331 325 318 310 300 289 278 264 248 235 226 224 224 220 215 212
64 66 21 358 4 278 275 214 258 248 185 172 192 211 218 220 220 227 232 233 238 231 229 226 200 207 185 136 121 113 103 60 349 327 323 317 310 300 290 280 265 251 237 227 217 210 213 208 202
134 130 148 205 251 284 310 224 245 231 168 185 199 212 224 235 244 243 238 229 222 216 216 208 200 208 192 164 147 129 116 96 351 328 320 314 309 301 293 281 265 250 236 223 212 210 212 210 212
153 154 169 152 275 293 303 326 275 250 214 213 219 231 246 254 252 235 203 183 187 195 201 201 205 213 203 180 149 132 122 88 358 331 325 323 322 319 320 310 286 260 233 215 200 208 214 213 216
159 155 93 101 190 291 299 296 238 234 230 228 221 214 218 211 203 177 177 183 192 199 206 206 211 211 200 178 166 163 160 156 282 326 328 326 326 334 342 345 340 324 272 214 199 209 212 194 191
210 176 131 141 168 173 265 276 238 228 219 203 199 188 182 188 207 216 215 206 201 202 201 203 209 203 196 191 185 179 182 184 229 294 308 314 321 336 348 353 358 355 346 336 187 201 177 143 111
189 188 150 166 237 191 199 264 285 270 104 109 105 117 23 319 298 272 242 215 209 210 207 201 201 203 211 205 194 195 191 193 224 265 288 305 318 330 344 353 1 11 28 42 58 67 78 89 97
Height
1513 1511 1510 1510 1511 1518 1519 1510 1498 1492 1491 1492 1493 1495 1500 1503 1507 1516 1512 1513 1518 1522 1524 1527 1529 1532 1534 1536 1538 1539 1540 1542 1543 1544 1544 1545 1546 1546 1546 1547 1548 1549 1550 1550 1551 1552 1553 1554 1555
1515 1512 1512 1511 1518 1532 1523 1507 1497 1492 1492 1494 1496 1498 1501 1504 1505 1508 1511 1515 1519 1522 1525 1527 1530 1532 1534 1536 1538 1539 1541 1542 1543 1544 1545 1546 1546 1546 1547 1547 1548 1549 1549 1550 1551 1552 1553 1553 1554
1515 1514 1514 1515 1522 1529 1519 1503 1495 1491 1492 1493 1498 1501 1504 1507 1507 1508 1511 1515 1518 1521 1524 1527 1530 1532 1534 1536 1538 1539 1540 1541 1543 1544 1545 1546 1546 1546 1547 1548 1548 1549 1549 1550 1551 1552 1552 1553 1554
1516 1516 1517 1522 1522 1513 1507 1498 1493 1492 1494 1496 1499 1505 1507 1509 1509 1510 1512 1515 1517 1520 1523 1526 1529 1531 1534 1536 1538 1539 1540 1541 1542 1544 1545 1546 1546 1546 1547 1548 1548 1549 1549 1550 1551 1551 1552 1552 1553
1515 1516 1522 1528 1518 1502 1495 1495 1496 1495 1496 1499 1499 1506 1510 1509 1508 1510 1513 1516 1518 1520 1523 1525 1528 1530 1533 1535 1538 1540 1541 1542 1542 1543 1544 1545 1546 1546 1546 1547 1548 1549 1549 1549 1550 1550 1551 1551 1552
1517 1518 1531 1534 1516 1497 1493 1494 1494 1493 1498 1500 1501 1506 1512 1511 1509 1511 1514 1517 1519 1520 1523 1525 1528 1530 1532 1535 1537 1539 1540 1541 1542 1543 1544 1545 1545 1546 1546 1546 1547 1548 1548 1549 1549 1550 1550 1550 1551
1517 1522 1528 1523 1514 1500 1494 1493 1492 1492 1494 1498 1499 1506 1512 1513 1511 1513 1515 1518 1520 1521 1523 1525 1527 1529 1531 1533 1534 1536 1538 1539 1540 1541 1542 1543 1544 1545 1545 1546 1546 1547 1548 1548 1548 1549 1549 1549 1549
1515 1520 1524 1521 1511 1502 1493 1492 1491 1491 1493 1496 1497 1502 1509 1512 1512 1513 1515 1518 1520 1521 1523 1525 1527 1529 1530 1532 1533 1535 1536 1538 1539 1539 1540 1541 1542 1543 1543 1544 1545 1546 1546 1547 1547 1547 1547 1548 1547
1515 1524 1529 1519 1511 1503 1493 1492 1493 1491 1491 1494 1495 1496 1500 1509 1512 1513 1515 1517 1519 1521 1522 1524 1526 1528 1530 1531 1533 1534 1535 1537 1538 1539 1539 1540 1540 1541 1541 1542 1543 1543 1544 1545 1545 1545 1544 1544 1544
1513 1525 1519 1508 1505 1500 1494 1493 1493 1493 1493 1495 1495 1497 1501 1507 1511 1512 1514 1515 1518 1520 1522 1524 1526 1527 1529 1530 1531 1533 1534 1535 1537 1538 1538 1539 1539 1540 1540 1540 1540 1541 1542 1542 1542 1542 1541 1541 1541
1509 1514 1507 1503 1501 1499 1495 1493 1494 1494 1496 1495 1494 1497 1502 1507 1511 1513 1514 1516 1518 1521 1523 1525 1526 1527 1528 1529 1530 1532 1533 1534 1535 1536 1537 1538 1538 1538 1538 1538 1538 1538 1539 1539 1539 1539 1539 1538 1539
1507 1504 1502 1500 1498 1497 1495 1492 1492 1492 1493 1493 1494 1497 1502 1506 1510 1512 1515 1517 1520 1522 1524 1525 1527 1528 1529 1530 1531 1531 1532 1533 1533 1534 1535 1535 1535 1535 1535 1535 1535 1535 1536 1536 1537 1537 1536 1536 1536
1505 1500 1497 1495 1494 1494 1493 1492 1490 1490 1492 1495 1498 1501 1503 1506 1509 1513 1516 1519 1520 1522 1523 1523 1525 1527 1528 1528 1529 1529 1529 1530 1531 1531 1532 1532 1532 1533 1532 1532 1532 1532 1532 1533 1534 1534 1533 1533 1533
1501 1498 1495 1493 1492 1491 1492 1490 1490 1491 1493 1498 1502 1504 1506 1508 1511 1514 1516 1518 1519 1521 1522 1522 1522 1524 1525 1525 1525 1526 1527 1528 1528 1529 1529 1530 1530 1530 1530 1529 1528 1528 1528 1529 1529 1530 1530 1530 1530
1500 1497 1495 1491 1490 1490 1492 1494 1490 1493 1493 1499 1501 1503 1505 1508 1510 1512 1514 1516 1518 1519 1520 1521 1521 1522 1523 1523 1523 1523 1524 1525 1525 1525 1526 1526 1526 1526 1525 1525 1524 1524 1524 1523 1524 1524 1525 1524 1524
1501 1504 1508 1494 1488 1487 1496 1503 1492 1491 1492 1498 1501 1502 1503 1506 1507 1509 1511 1514 1516 1518 1519 1521 1521 1521 1522 1522 1523 1523 1524 1524 1524 1523 1523 1522 1521 1520 1519 1519 1518 1519 1519 1519 1519 1519 1519 1519 1518
1514 1519 1513 1497 1482 1482 1491 1498 1493 1492 1492 1497 1499 1501 1502 1505 1507 1508 1510 1511 1513 1515 1517 1519 1520 1521 1521 1521 1521 1520 1520 1520 1520 1519 1518 1517 1516 1516 1515 1513 1512 1513 1513 1513 1513 1513 1513 1513 1513
1522 1518 1511 1505 1487 1483 1490 1493 1492 1493 1492 1495 1499 1501 1503 1506 1508 1510 1510 1511 1512 1514 1516 1517 1518 1519 1519 1519 1518 1517 1517 1516 1515 1514 1512 1511 1510 1510 1508 1507 1506 1506 1506 1506 1507 1507 1506 1506 1506
1507 1509 1510 1502 1492 1491 1496 1495 1494 1494 1494 1497 1500 1502 1504 1506 1509 1510 1510 1510 1511 1513 1515 1516 1516 1516 1515 1515 1514 1513 1512 1511 1510 1508 1507 1505 1504 1503 1502 1501 1499 1499 1499 1499 1499 1499 1499 1499 1499
1503 1510 1511 1504 1496 1496 1501 1502 1497 1494 1493 1496 1499 1502 1504 1507 1508 1510 1510 1511 1511 1512 1513 1514 1514 1513 1513 1512 1510 1509 1507 1505 1503 1502 1500 1498 1497 1496 1495 1494 1493 1492 1492 1492 1492 1492 1492 1493 1493
1504 1511 1510 1510 1505 1502 1507 1515 1508 1502 1497 1499 1500 1501 1503 1505 1507 1508 1510 1510 1510 1510 1510 1511 1511 1510 1509 1508 1506 1504 1502 1500 1498 1496 1494 1492 1490 1489 1487 1486 1485 1485 1485 1485 1485 1485 1485 1486 1486
1511 1502 1502 1504 1514 1521 1516 1534 1516 1508 1505 1503 1503 1503 1504 1505 1506 1507 1508 1507 1507 1507 1507 1507 1506 1505 1505 1503 1502 1500 1497 1495 1493 1490 1488 1485 1484 1482 1480 1478 1477 1477 1477 1476 1477 1477 1477 1477 1477
1503 1498 1500 1504 1511 1520 1516 1527 1522 1510 1510 1507 1505 1505 1505 1505 1505 1505 1505 1504 1504 1504 1503 1503 1501 1500 1499 1498 1497 1495 1493 1491 1488 1485 1482 1479 1477 1474 1472 1471 1469 1468 1468 1468 1469 1469 1469 1469 1470
1498 1503 1508 1514 1523 1536 1522 1525 1526 1515 1507 1505 1505 1505 1504 1504 1502 1501 1501 1500 1500 1501 1501 1500 1499 1497 1495 1494 1492 1491 1489 1486 1483 1480 1477 1473 1469 1465 1463 1462 1460 1459 1459 1460 1460 1461 1461 1461 1462
1504 1524 1544 1544 1549 1543 1520 1523 1523 1503 1498 1500 1501 1501 1500 1500 1499 1498 1498 1498 1498 1499 1498 1498 1496 1494 1492 1490 1489 1487 1485 1482 1479 1475 1471 1467 1462 1458 1454 1452 1451 1451 1451 1452 1453 1453 1454 1455 1456
1506 1521 1545 1554 1555 1544 1524 1524 1515 1498 1495 1496 1496 1496 1496 1496 1496 1496 1496 1496 1496 1496 1496 1495 1493 1491 1489 1487 1486 1484 1481 1478 1475 1471 1467 1462 1457 1452 1448 1445 1444 1444 1445 1445 1446 1447 1448 1449 1450
1507 1516 1520 1537 1539 1544 1534 1516 1507 1499 1497 1494 1494 1494 1493 1493 1493 1493 1492 1492 1493 1493 1493 1492 1490 1488 1486 1484 1483 1481 1478 1475 1472 1468 1463 1459 1454 1449 1445 1442 1440 1440 1441 1441 1441 1442 1443 1444 1445
1500 1508 1524 1534 1545 1552 1538 1526 1520 1504 1498 1494 1493 1493 1492 1492 1491 1491 1490 1490 1490 1490 1489 1488 1486 1484 1482 1481 1479 1477 1475 1472 1469 1465 1461 1457 1453 1449 1445 1441 1439 1438 1438 1438 1438 1438 1439 1440 1441
1505 1507 1517 1531 1538 1549 1550 1535 1502 1496 1491 1490 1490 1491 1492 1493 1492 1491 1490 1488 1488 1487 1486 1485 1483 1481 1479 1478 1476 1474 1472 1469 1467 1464 1460 1457 1454 1450 1446 1442 1440 1438 1437 1437 1436 1436 1437 1438 1439
1499 1505 1516 1530 1533 1535 1542 1531 1493 1491 1490 1491 1492 1494 1495 1495 1493 1491 1488 1486 1485 1484 1483 1482 1480 1478 1477 1475 1473 1471 1469 1467 1465 1463 1460 1457 1455 1451 1448 1445 1442 1439 1438 1437 1436 1435 1437 1438 1440